, OR

(GMT )
Tillamook

Weather History for KTMK - February, 2013

Change the Weather History Date:

Thursday, February 7, 2013

  Actual Average Record
Temperature  
Mean Temperature 42 °F -  
Max Temperature 46 °F - - ()
Min Temperature 35 °F - - ()
Degree Days  
Heating Degree Days 24    
Moisture  
Dew Point 40 °F    
Average Humidity 88    
Maximum Humidity 100    
Minimum Humidity 76    
Precipitation  
Precipitation 0.11 in - - ()
Sea Level Pressure  
Sea Level Pressure 30.01 in    
Wind  
Wind Speed 4 mph (SSE)    
Max Wind Speed 12 mph    
Max Gust Speed 18 mph    
Visibility 8 miles    
Events Fog , Rain    
Averages and records for this station are not official NWS values.
T = Trace of Precipitation, MM = Missing Value Source: NWS Daily Summary

Daily Weather History Graph

Daily Weather History Graph

Search for Another Location

Airport or City:

Trip Planner

Search our weather history database for the weather conditions in past years. The results will help you decide how hot, cold, wet, or windy it might be!

Date:

Astronomy

Feb. 07, 2013 Rise Set
Actual Time 8:27 AM MST 6:31 PM MST
Civil Twilight 7:56 AM MST 7:02 PM MST
Nautical Twilight 7:21 AM MST 7:37 PM MST
Astronomical Twilight 6:47 AM MST 8:11 PM MST
Moon 6:16 AM MST (2/7) 3:58 PM MST (2/7)
Length of Visible Light 11h 05m
Length of Day
10h 03m
Waning Crescent, 8% of the Moon is Illuminated
Feb 7
Waning Crescent
Feb 10
New
Feb 17
First Quarter
Feb 25
Full
Mar 4
Last Quarter

Hourly Weather History & Observations

Time (MST) Temp. Windchill Dew Point Humidity Pressure Visibility Wind Dir Wind Speed Gust Speed Precip Events Conditions
12:15 AM 42.8 °F 38.6 °F 39.2 °F 87% 29.90 in 10.0 mi South 6.9 mph - N/A Rain Light Rain
12:35 AM 42.8 °F 38.0 °F 39.2 °F 87% 29.91 in 10.0 mi SSE 8.1 mph - N/A Rain Light Rain
12:55 AM 42.8 °F 36.6 °F 39.2 °F 87% 29.91 in 4.0 mi SSE 11.5 mph - 0.02 in Rain Light Rain
1:15 AM 42.8 °F 37.0 °F 39.2 °F 87% 29.93 in 10.0 mi SSE 10.4 mph 18.4 mph N/A   Overcast
1:35 AM 42.8 °F 38.6 °F 39.2 °F 87% 29.93 in 10.0 mi SE 6.9 mph - N/A   Overcast
1:55 AM 42.8 °F 38.6 °F 39.2 °F 87% 29.93 in 10.0 mi SE 6.9 mph - N/A   Overcast
2:15 AM 42.8 °F - 39.2 °F 87% 29.94 in 10.0 mi Calm Calm - N/A   Overcast
2:35 AM 42.8 °F 40.1 °F 39.2 °F 87% 29.95 in 10.0 mi SSE 4.6 mph - N/A   Overcast
2:55 AM 42.8 °F - 39.2 °F 87% 29.95 in 10.0 mi Calm Calm - N/A   Overcast
3:15 AM 42.8 °F 40.1 °F 41.0 °F 93% 29.96 in 5.0 mi South 4.6 mph - 0.02 in Rain Rain
3:35 AM 42.8 °F 39.3 °F 41.0 °F 93% 29.96 in 10.0 mi SE 5.8 mph - 0.02 in   Overcast
3:55 AM 42.8 °F 38.6 °F 39.2 °F 87% 29.96 in 10.0 mi South 6.9 mph - 0.02 in   Overcast
4:15 AM 42.8 °F 38.6 °F 39.2 °F 87% 29.96 in 10.0 mi South 6.9 mph - N/A   Mostly Cloudy
4:35 AM 42.8 °F 40.1 °F 39.2 °F 87% 29.96 in 10.0 mi SSE 4.6 mph - N/A   Mostly Cloudy
4:55 AM 41.0 °F 37.1 °F 39.2 °F 93% 29.96 in 10.0 mi SE 5.8 mph - N/A   Overcast
5:15 AM 41.0 °F 36.4 °F 39.2 °F 93% 29.96 in 10.0 mi SSE 6.9 mph - N/A   Mostly Cloudy
5:35 AM 41.0 °F 35.8 °F 39.2 °F 93% 29.97 in 10.0 mi SSE 8.1 mph - N/A   Scattered Clouds
5:55 AM 41.0 °F - 39.2 °F 93% 29.97 in 10.0 mi Calm Calm - N/A   Clear
6:15 AM 41.0 °F 38.0 °F 39.2 °F 93% 29.97 in 10.0 mi ESE 4.6 mph - N/A   Scattered Clouds
6:35 AM 41.0 °F - 39.2 °F 93% 29.97 in 5.0 mi Calm Calm - 0.01 in Rain Light Rain
6:55 AM 41.0 °F 38.0 °F 39.2 °F 93% 29.98 in 10.0 mi SE 4.6 mph - 0.02 in   Mostly Cloudy
7:15 AM 41.0 °F - 39.2 °F 93% 29.98 in 10.0 mi Calm Calm - N/A   Mostly Cloudy
7:35 AM 41.0 °F 39.0 °F 39.2 °F 93% 29.99 in 4.0 mi SW 3.5 mph - 0.01 in Rain Rain
7:55 AM 41.0 °F 39.0 °F 39.2 °F 93% 29.98 in 7.0 mi NNE 3.5 mph - 0.03 in Rain Light Rain
8:15 AM 41.0 °F 38.0 °F 39.2 °F 93% 29.98 in 10.0 mi South 4.6 mph - N/A   Overcast
8:35 AM 41.0 °F 39.0 °F 37.4 °F 87% 29.98 in 10.0 mi East 3.5 mph - N/A   Scattered Clouds
8:55 AM 41.0 °F 39.0 °F 37.4 °F 87% 29.99 in 10.0 mi East 3.5 mph - N/A   Clear
9:15 AM 41.0 °F 39.0 °F 37.4 °F 87% 29.99 in 10.0 mi South 3.5 mph - N/A   Clear
9:35 AM 41.0 °F - 39.2 °F 93% 29.99 in 7.0 mi Calm Calm - N/A   Clear
9:55 AM 41.0 °F 39.0 °F 39.2 °F 93% 29.99 in 7.0 mi East 3.5 mph - N/A   Clear
10:15 AM 42.8 °F 40.1 °F 39.2 °F 87% 30.00 in 10.0 mi ENE 4.6 mph - N/A   Clear
10:35 AM 42.8 °F - 39.2 °F 87% 30.00 in 10.0 mi Calm Calm - N/A   Clear
10:55 AM 44.6 °F - 39.2 °F 81% 30.00 in 10.0 mi Calm Calm - N/A   Scattered Clouds
11:15 AM 42.8 °F - 41.0 °F 93% 30.00 in 10.0 mi Calm Calm - N/A   Scattered Clouds
11:35 AM 44.6 °F - 41.0 °F 87% 30.00 in 10.0 mi Calm Calm - N/A   Mostly Cloudy
11:55 AM 46.4 °F - 39.2 °F 76% 30.01 in 10.0 mi Calm Calm - N/A   Mostly Cloudy
12:15 PM 46.4 °F 45.2 °F 39.2 °F 76% 30.01 in 10.0 mi West 3.5 mph - N/A   Overcast
12:35 PM 44.6 °F - 41.0 °F 87% 30.01 in 10.0 mi Calm Calm - N/A   Overcast
12:55 PM 46.4 °F - 41.0 °F 81% 30.01 in 10.0 mi Calm Calm - N/A   Light Drizzle
1:15 PM 46.4 °F 45.2 °F 41.0 °F 81% 30.01 in 7.0 mi SSW 3.5 mph - N/A Rain Rain
1:35 PM 46.4 °F 44.3 °F 41.0 °F 81% 30.00 in 10.0 mi SW 4.6 mph - N/A   Light Drizzle
1:55 PM 46.4 °F 44.3 °F 39.2 °F 76% 30.00 in 10.0 mi WSW 4.6 mph - N/A Rain Light Rain
2:15 PM 44.6 °F - 39.2 °F 81% 30.00 in 10.0 mi Calm Calm - N/A   Light Drizzle
2:35 PM 46.4 °F - 39.2 °F 76% 29.99 in 10.0 mi Calm Calm - N/A   Light Drizzle
2:55 PM 46.4 °F - 39.2 °F 76% 29.99 in 10.0 mi Calm Calm - N/A Rain Light Rain
3:15 PM 46.4 °F - 41.0 °F 81% 29.99 in 10.0 mi Calm Calm - N/A Rain Light Rain
3:35 PM 46.4 °F 45.2 °F 41.0 °F 81% 29.99 in 10.0 mi WNW 3.5 mph - N/A   Overcast
3:55 PM 46.4 °F 42.9 °F 41.0 °F 81% 30.00 in 7.0 mi SSE 6.9 mph - 0.01 in Rain Rain
4:35 PM 46.4 °F 44.3 °F 41.0 °F 81% 30.01 in 10.0 mi West 4.6 mph - 0.01 in   Overcast
4:55 PM 46.4 °F 43.5 °F 41.0 °F 81% 30.02 in 10.0 mi WSW 5.8 mph - 0.01 in   Overcast
5:15 PM 44.6 °F 42.2 °F 39.2 °F 81% 30.02 in 10.0 mi WSW 4.6 mph - N/A   Overcast
5:35 PM 44.6 °F - 39.2 °F 81% 30.03 in 10.0 mi Calm Calm - N/A   Overcast
5:55 PM 44.6 °F - 39.2 °F 81% 30.03 in 10.0 mi Calm Calm - N/A   Overcast
6:15 PM 44.6 °F - 39.2 °F 81% 30.04 in 10.0 mi Calm Calm - N/A   Overcast
6:35 PM 44.6 °F - 41.0 °F 87% 30.05 in 10.0 mi Calm Calm - N/A   Overcast
6:55 PM 44.6 °F - 41.0 °F 87% 30.06 in 10.0 mi Calm Calm - N/A   Overcast
7:15 PM 44.6 °F - 41.0 °F 87% 30.06 in 10.0 mi Calm Calm - N/A   Overcast
7:35 PM 42.8 °F - 41.0 °F 93% 30.07 in 10.0 mi Calm Calm - N/A   Light Drizzle
7:55 PM 42.8 °F - 41.0 °F 93% 30.08 in 10.0 mi Calm Calm - N/A   Overcast
8:15 PM 42.8 °F - 41.0 °F 93% 30.08 in 10.0 mi Calm Calm - N/A   Overcast
8:35 PM 42.8 °F - 41.0 °F 93% 30.08 in 10.0 mi Calm Calm - N/A   Mostly Cloudy
8:55 PM 41.0 °F - 41.0 °F 100% 30.09 in 7.0 mi Calm Calm - N/A   Mostly Cloudy
9:15 PM 41.0 °F - 39.2 °F 93% 30.10 in 0.8 mi Calm Calm - N/A   Mostly Cloudy
9:35 PM 39.2 °F - 39.2 °F 100% 30.10 in 0.2 mi Calm Calm - N/A Fog Fog
9:55 PM 39.2 °F - 39.2 °F 100% 30.11 in 0.2 mi Calm Calm - N/A Fog Fog
10:15 PM 39.2 °F - 39.2 °F 100% 30.12 in 0.2 mi Calm Calm - N/A Fog Fog
10:35 PM 39.2 °F - 39.2 °F 100% 30.13 in 0.2 mi Calm Calm - N/A Fog Fog
10:55 PM 39.2 °F - 39.2 °F 100% 30.13 in 0.2 mi Calm Calm - N/A Fog Fog
11:15 PM 39.2 °F - 39.2 °F 100% 30.13 in 0.2 mi Calm Calm - N/A Fog Fog
11:35 PM 37.4 °F - 37.4 °F 100% 30.15 in 0.2 mi Calm Calm - N/A Fog Fog
11:55 PM 35.6 °F - 35.6 °F 100% 30.16 in 0.2 mi Calm Calm - N/A Fog Fog